Weather in Barsuki

Russia / Republic of Ingushetia     43°15′39″N   44°48′33″E
temp.,
°C
wind,
m/s
gust,
m/s
humid.,
%
clouds,
%
prec.,
mm/h
press.,
hPa
HPBL,
m
15 may, sat
sat1500:00+16s22730 0.0 101211
03:00+16s22630 0.0 101211
06:00+17sw22662 0.0 101337
09:00+23w22505 0.0 1013326
12:00+27n22485 0.0 10131149
15:00+27ne325323 0.0 10121535
18:00+23wnw1271100 2.1 101217
21:00+17s227499 2.4 101315
16 may, sun
sun1600:00+16s2273100 0.0 101211
03:00+15sse116964 0.0 101111
06:00+17s11725 0.0 101122
09:00+23ne11540 0.0 1010434
12:00+26ene45522 0.0 1008800
15:00+26ene44510 0.0 10071053
18:00+24nne22650 0.0 100650
21:00+19s22655 0.0 100718
17 may, mon
mon1700:00+17s324779 0.0 100624
03:00+15sse224177 0.0 100619
06:00+17se225325 0.0 100618
09:00+24ene124297 0.0 1005296
12:00+26ne44440 0.0 1005499
15:00+27ne32450 0.0 1005808
18:00+24n336442 0.0 100558
21:00+17wsw488797 0.9 1010185
18 may, tue
tue1800:00+17sw3389100 0.0 100951
03:00+16wsw3688100 0.0 1009107
06:00+16w388796 0.0 1011417
09:00+18wnw5679100 0.3 1012864
12:00+17w5891100 4.8 1013583
15:00+18wnw678297 9.9 1014967
18:00+17w3585100 2.0 1015201
21:00+14ssw2290100 2.2 101629
19 may, wed
wed1900:00+14ssw2290100 0.8 101733
03:00+13ssw229080 0.9 101717
06:00+15s22853 0.0 101862
09:00+20ene21630 0.0 1017764
12:00+23ne33520 0.0 10151174
15:00+23ene44520 0.0 10141287
18:00+21ene35700 0.0 1014180
21:00+16e22790 0.0 101423